EST,Max TemperatureF,Mean TemperatureF,Min TemperatureF,Max Dew PointF,MeanDew PointF,Min DewpointF,Max Humidity, Mean Humidity, Min Humidity, Max Sea Level PressureIn, Mean Sea Level PressureIn, Min Sea Level PressureIn, Max VisibilityMiles, Mean VisibilityMiles, Min VisibilityMiles, Max Wind SpeedMPH, Mean Wind SpeedMPH, Max Gust SpeedMPH,PrecipitationIn, CloudCover, Events, WindDirDegrees
2013-11-1,69,60,50,54,47,40,89,62,35,29.80,29.69,29.52,10,10,10,24,11,33,0.00,4,,247
2013-11-2,61,52,43,44,40,35,89,68,46,30.14,29.93,29.81,10,10,10,26,8,31,0.01,4,,270
2013-11-3,57,48,38,39,35,32,85,63,41,30.34,30.27,30.15,10,10,7,9,3,14,0.00,2,,62
2013-11-4,64,53,42,41,38,36,76,58,39,30.38,30.33,30.28,10,10,10,18,6,24,0.00,7,,149
2013-11-5,64,57,50,42,40,39,68,56,43,30.40,30.31,30.22,10,10,10,9,5,13,0.00,6,,129
2013-11-6,69,58,46,61,52,40,93,75,57,30.20,30.07,30.00,10,8,2,21,10,28,0.20,7,Rain,224
2013-11-7,53,46,38,43,32,23,92,62,32,30.33,30.25,30.12,10,10,7,17,9,21,0.05,2,Rain,301
2013-11-8,55,44,32,31,27,24,82,57,32,30.42,30.33,30.26,10,10,10,15,4,18,0.00,1,,171
2013-11-9,64,50,35,36,30,26,70,49,28,30.25,30.17,30.10,10,10,10,23,10,30,0.00,1,,194
2013-11-10,58,48,37,40,31,23,83,56,28,30.36,30.30,30.17,10,10,7,16,7,22,0.00,1,,295
2013-11-11,66,50,34,45,30,19,82,49,16,30.32,30.23,30.12,10,9,7,24,6,32,0.01,5,Rain-Snow,240
2013-11-12,44,37,30,41,25,15,89,63,37,30.67,30.48,30.24,10,8,2,25,14,31,0.05,5,Rain-Snow,359
2013-11-13,43,34,24,23,20,18,81,59,36,30.70,30.60,30.44,10,10,9,10,4,18,0.00,0,,235
2013-11-14,57,43,28,21,18,13,69,44,18,30.43,30.31,30.18,10,10,10,17,7,22,0.00,2,,178
2013-11-15,56,47,38,45,32,18,86,58,29,30.20,30.15,30.11,10,10,6,14,6,18,0.10,8,Rain,159
2013-11-16,64,56,47,56,51,45,93,86,78,30.12,30.04,29.91,10,8,3,20,9,23,0.00,8,,158
2013-11-17,69,60,51,64,58,39,100,72,43,29.89,29.77,29.58,10,6,1,25,13,35,3.14,7,Rain-Thunderstorm,162
2013-11-18,57,50,42,42,35,27,80,59,38,30.24,30.07,29.89,10,10,10,23,11,30,0.00,0,,285
2013-11-19,47,41,34,28,27,26,70,58,45,30.35,30.30,30.24,10,10,10,14,7,17,0.00,5,,28
2013-11-20,56,44,31,32,29,25,75,57,38,30.31,30.25,30.19,10,10,10,14,5,17,0.00,4,,108
2013-11-21,65,54,43,53,42,30,93,75,56,30.31,30.24,30.16,10,10,9,15,5,18,0.07,7,Rain,145
2013-11-22,59,51,42,56,50,34,93,79,65,30.39,30.24,30.17,10,8,2,22,10,26,0.01,8,Rain,264
2013-11-23,46,36,25,34,22,10,76,51,25,30.61,30.46,30.38,10,10,10,23,14,29,0.00,6,,342
2013-11-24,32,26,20,13,11,8,73,56,39,30.74,30.64,30.55,10,10,10,18,7,22,0.00,4,,4
2013-11-25,42,34,26,32,19,12,55,45,34,30.54,30.34,30.20,10,9,3,16,7,21,0.01,8,Snow,178
2013-11-26,37,36,34,34,32,26,92,81,70,30.24,30.06,29.95,10,6,1,15,6,20,0.07,8,Rain-Snow,7
2013-11-27,36,29,21,27,18,10,70,62,53,30.37,30.15,29.98,10,10,7,22,12,26,T,6,Snow,308
2013-11-28,40,30,20,18,14,10,73,53,33,30.48,30.40,30.32,10,10,10,15,5,21,0.00,2,,194
2013-11-29,47,36,24,24,21,18,81,61,40,30.64,30.56,30.48,10,10,8,7,1,8,0.00,1,,88
2013-11-30,57,43,28,27,25,23,78,55,32,30.48,30.35,30.21,10,10,8,15,5,20,0.00,2,,183